STRATOSAT-TK 1 (RS52S)

Last updated on Mon Nov 03 2025 00:03:22 GMT+0000 (Coordinated Universal Time)

1 57167U 23091B 25306.43448670 .00122377 00000+0 15262-2 0 9992 2 57167 97.5317 16.0326 0005166 150.0321 210.1232 15.59464262130568
UTC large
Height (km)
Speed (km/s)
/
Latitude / Longitude
Inclination (degrees)
Orbital Period (minutes)
Azimuth
Elevation
Range (km)
Doppler Factor

Next 0 passes for location: London (51.5072 / 0.1276)

Sorry there are no passes over London.